RESOURCESAT 2

Satellite information

Favourite Embed

Satellite Type and Status

PAYLOADIN ORBIT

Key statistics

Satellite RESOURCESAT 2 at a glance.

Uptime

5293

Days in orbit

Revolutions

≈ 14.2

Per day

Orbit

SSO

Sun Synchronous Orbit

Inclination

98.8

Latest

Satellite identification and parameters

Extended collection of information and parameters for RESOURCESAT 2.

Object identification

Identified? True

Debris? False

Object name: RESOURCESAT 2

International designator: 2011-015A

Object number (NORAD): 37387

Object ID (CCSDS): 37387

Country: INDIA (IND)

Current information (Y/N): Y

RCS size: LARGE

Orbital parameters

Period: 101.295 minutes

Inclination: 98.7954 deg

SMA: 7198.107 km

Apoapsis: 824.063 km

Periapsis: 815.881 km

RAAN: 352.72 deg

Eccentricy: 0.00056832

Argument of periapsis: 191.1234 deg

Mean anomaly: 168.9819 deg

Mean motion: 14.21593181 rev/day

Mean motion (dot): 0.000002 rev/day2

B* drag term: 0.00011144246 1/REarth

Two-line elements (TLE)

Creation date: Oct. 16, 2025, 2:37 a.m.

Reference frame: TEME

Reference center: EARTH

Epoch: Oct. 15, 2025, 10:20 p.m. UTC

TLE line 0: 0 RESOURCESAT 2

TLE line 1: 1 37387U 11015A 25288.93064911 .00000200 00000-0 11144-3 0 9990

TLE line 2: 2 37387 98.7954 352.7200 0005683 191.1234 168.9819 14.21593181751475

Live tracking on map

Real-time ground track for satellite RESOURCESAT 2.

In-orbit conjunctions

There are no conjunctions computed for RESOURCESAT 2, at the moment. Check back to stay up to date, as we update our databases every day.

Go to all conjunctions

Associated space launch

RESOURCESAT 2 was lifted into orbit during the mission ‘PSLV | Resourcesat-2’, on board a PSLV space rocket.

The launch took place on April 20, 2011, 4:42 a.m. from Satish Dhawan Space Centre First Launch Pad.

For more information about the launch, click the button.

Launch to space PSLV | Resourcesat-2
PSLV | Resourcesat-2

Agency: N/A

Status: Launch Successful

Launch date: April 20, 2011, 4:42 a.m. UTC

Rocket: PSLV

Launch pad: Satish Dhawan Space Centre First Launch Pad

Location: Satish Dhawan Space Centre, India

...

Latest news about this satellite

There are no fresh news available about this satellite. Check back as we update our databases every day.


Newsletter sign-up

Weekly statistics, charts and insights to help you stay on top of the space industry.